SAS166 ESGG-ESSA

Flight info

Callsign SAS166
Flight time 0h 43m
Altitude 33000
Route LABAN N873 ARS T317 ELTOK
Aircraft A319/M-SDE3FGIJ1RWXY/LB1

Departure

Time 2026-05-04 15:34
Airport Göteborg Landvetter Airport (ESGG)

Arrival

Time 2026-05-04 16:18
Airport Stockholm-Arlanda Airport (ESSA)
Time Latitude Longitude Altitude Speed Heading
2026-05-04 15:08 57.66931 12.29470 516 ft 0 kts 116°
2026-05-04 15:27 57.66934 12.29460 516 ft 4 kts 116°
2026-05-04 15:27 57.66955 12.29379 516 ft 4 kts 130°
2026-05-04 15:28 57.66989 12.29362 516 ft 0 kts 206°
2026-05-04 15:30 57.66985 12.29295 516 ft 7 kts 298°
2026-05-04 15:31 57.67088 12.29225 516 ft 13 kts 26°
2026-05-04 15:31 57.67182 12.29310 516 ft 17 kts 26°
2026-05-04 15:32 57.67365 12.29479 516 ft 3 kts 26°
2026-05-04 15:32 57.67429 12.29409 516 ft 10 kts 297°
2026-05-04 15:33 57.67456 12.29128 514 ft 17 kts 265°
2026-05-04 15:34 57.66483 12.28161 512 ft 135 kts 205°
2026-05-04 15:34 57.65597 12.27390 991 ft 144 kts 210°
2026-05-04 15:34 57.63740 12.25713 2343 ft 156 kts 213°
2026-05-04 15:35 57.61295 12.25430 3052 ft 219 kts 166°
2026-05-04 15:35 57.59835 12.26530 3807 ft 229 kts 161°
2026-05-04 15:35 57.58362 12.27767 4741 ft 236 kts 159°
2026-05-04 15:36 57.56608 12.32932 6249 ft 270 kts 86°
2026-05-04 15:36 57.56982 12.36488 6758 ft 291 kts 68°
2026-05-04 15:36 57.57760 12.40058 7551 ft 300 kts 61°
2026-05-04 15:37 57.58671 12.43613 8482 ft 306 kts 60°
2026-05-04 15:37 57.59602 12.47241 9425 ft 314 kts 62°
2026-05-04 15:37 57.60507 12.50963 10167 ft 327 kts 63°
2026-05-04 15:37 57.61558 12.54894 10548 ft 347 kts 55°
2026-05-04 15:38 57.62994 12.58569 11191 ft 353 kts 44°
2026-05-04 15:38 57.64769 12.61756 11986 ft 354 kts 34°
2026-05-04 15:38 57.66637 12.64832 12812 ft 361 kts 38°
2026-05-04 15:38 57.68429 12.68122 13604 ft 368 kts 40°
2026-05-04 15:39 57.70216 12.71601 14309 ft 373 kts 41°
2026-05-04 15:39 57.72013 12.75163 15032 ft 378 kts 41°
2026-05-04 15:39 57.75668 12.82325 16455 ft 385 kts 40°
2026-05-04 15:40 57.77552 12.85952 17178 ft 389 kts 40°
2026-05-04 15:40 57.79458 12.89596 17895 ft 393 kts 40°
2026-05-04 15:40 57.81366 12.93227 18520 ft 397 kts 40°
2026-05-04 15:40 57.83311 12.96925 19152 ft 400 kts 39°
2026-05-04 15:41 57.85276 13.00668 19760 ft 404 kts 39°
2026-05-04 15:41 57.87257 13.04455 20403 ft 407 kts 40°
2026-05-04 15:41 57.89250 13.08278 21042 ft 410 kts 40°
2026-05-04 15:41 57.91255 13.12131 21649 ft 413 kts 40°
2026-05-04 15:42 57.93267 13.16019 22259 ft 416 kts 40°
2026-05-04 15:42 57.95292 13.19951 22864 ft 420 kts 40°
2026-05-04 15:42 57.97340 13.23928 23456 ft 423 kts 40°
2026-05-04 15:42 57.99403 13.27921 23966 ft 426 kts 40°
2026-05-04 15:43 58.01478 13.31942 24451 ft 429 kts 40°
2026-05-04 15:43 58.03563 13.35997 24941 ft 431 kts 40°
2026-05-04 15:43 58.05628 13.40027 25420 ft 434 kts 40°
2026-05-04 15:43 58.07734 13.44144 25907 ft 437 kts 40°
2026-05-04 15:44 58.09859 13.48298 26373 ft 439 kts 40°
2026-05-04 15:44 58.11992 13.52466 26840 ft 442 kts 40°
2026-05-04 15:44 58.14136 13.56667 27305 ft 445 kts 40°
2026-05-04 15:44 58.16297 13.60909 27770 ft 448 kts 41°
2026-05-04 15:45 58.18441 13.65131 28226 ft 451 kts 41°
2026-05-04 15:45 58.20620 13.69439 28680 ft 454 kts 41°
2026-05-04 15:45 58.22805 13.73771 29189 ft 455 kts 41°
2026-05-04 15:45 58.25000 13.78126 29671 ft 458 kts 41°
2026-05-04 15:46 58.27211 13.82513 30071 ft 460 kts 41°
2026-05-04 15:46 58.29433 13.86920 30446 ft 464 kts 41°
2026-05-04 15:46 58.30917 13.89866 30640 ft 466 kts 41°
2026-05-04 15:46 58.33173 13.94355 30956 ft 470 kts 41°
2026-05-04 15:47 58.36177 14.00364 31385 ft 474 kts 41°
2026-05-04 15:47 58.37715 14.03453 31648 ft 474 kts 41°
2026-05-04 15:47 58.39983 14.08018 32118 ft 474 kts 41°
2026-05-04 15:47 58.42219 14.12522 32576 ft 473 kts 41°
2026-05-04 15:48 58.44491 14.17101 32750 ft 472 kts 41°
2026-05-04 15:48 58.46713 14.21596 32781 ft 460 kts 41°
2026-05-04 15:48 58.51006 14.30316 32781 ft 443 kts 41°
2026-05-04 15:49 58.55238 14.38908 32777 ft 444 kts 41°
2026-05-04 15:49 58.59449 14.47486 32783 ft 445 kts 41°
2026-05-04 15:50 58.63691 14.56174 32778 ft 445 kts 41°
2026-05-04 15:50 58.67887 14.64819 32763 ft 443 kts 41°
2026-05-04 15:51 58.72090 14.73482 32759 ft 442 kts 41°
2026-05-04 15:51 58.76287 14.82151 32784 ft 442 kts 41°
2026-05-04 15:52 58.80225 14.91279 32544 ft 450 kts 48°
2026-05-04 15:52 58.82071 14.96173 32244 ft 447 kts 49°
2026-05-04 15:52 58.83881 15.01059 31748 ft 447 kts 49°
2026-05-04 15:53 58.85722 15.06057 31258 ft 466 kts 49°
2026-05-04 15:53 58.87651 15.11288 30750 ft 487 kts 50°
2026-05-04 15:53 58.89629 15.16665 30240 ft 497 kts 50°
2026-05-04 15:53 58.91644 15.22151 29721 ft 502 kts 50°
2026-05-04 15:54 58.93669 15.27679 29164 ft 500 kts 50°
2026-05-04 15:54 58.95655 15.33114 28685 ft 498 kts 50°
2026-05-04 15:54 58.97650 15.38577 28249 ft 495 kts 50°
2026-05-04 15:54 58.99648 15.44043 27709 ft 495 kts 50°
2026-05-04 15:55 59.01638 15.49502 27230 ft 492 kts 50°
2026-05-04 15:55 59.03604 15.54917 26900 ft 485 kts 50°
2026-05-04 15:55 59.05534 15.60235 26648 ft 488 kts 50°
2026-05-04 15:55 59.07497 15.65652 26387 ft 488 kts 50°
2026-05-04 15:56 59.09449 15.71057 26127 ft 487 kts 50°
2026-05-04 15:56 59.11391 15.76445 25866 ft 486 kts 50°
2026-05-04 15:56 59.13325 15.81831 25617 ft 485 kts 50°
2026-05-04 15:56 59.15255 15.87215 25365 ft 483 kts 51°
2026-05-04 15:57 59.17178 15.92593 25117 ft 482 kts 51°
2026-05-04 15:57 59.19094 15.97960 24914 ft 481 kts 51°
2026-05-04 15:57 59.20987 16.03266 24603 ft 483 kts 51°
2026-05-04 15:57 59.22902 16.08641 23907 ft 482 kts 51°
2026-05-04 15:58 59.24805 16.14011 23262 ft 479 kts 51°
2026-05-04 15:58 59.26694 16.19362 22568 ft 474 kts 52°
2026-05-04 15:58 59.28556 16.24662 21959 ft 470 kts 52°
2026-05-04 15:58 59.30391 16.29903 21377 ft 465 kts 52°
2026-05-04 15:59 59.32210 16.35101 20801 ft 460 kts 52°
2026-05-04 15:59 59.34023 16.40270 20239 ft 466 kts 52°
2026-05-04 15:59 59.35883 16.45549 19622 ft 472 kts 52°
2026-05-04 15:59 59.37748 16.50857 19003 ft 470 kts 52°
2026-05-04 16:00 59.39565 16.56060 18379 ft 466 kts 52°
2026-05-04 16:00 59.41384 16.61299 17711 ft 462 kts 53°
2026-05-04 16:00 59.43183 16.66502 17025 ft 457 kts 53°
2026-05-04 16:00 59.44963 16.71660 16356 ft 453 kts 53°
2026-05-04 16:01 59.46718 16.76752 15939 ft 442 kts 53°
2026-05-04 16:01 59.48401 16.81656 15805 ft 422 kts 53°
2026-05-04 16:01 59.49995 16.86312 15324 ft 408 kts 52°
2026-05-04 16:01 59.51577 16.90933 14800 ft 403 kts 52°
2026-05-04 16:02 59.53151 16.95527 14647 ft 402 kts 52°
2026-05-04 16:02 59.54714 17.00095 14663 ft 402 kts 52°
2026-05-04 16:02 59.57844 17.09268 14665 ft 403 kts 52°
2026-05-04 16:03 59.59386 17.13793 14664 ft 402 kts 53°
2026-05-04 16:03 59.60916 17.18312 14660 ft 385 kts 53°
2026-05-04 16:03 59.62370 17.22620 14682 ft 368 kts 53°
2026-05-04 16:03 59.63766 17.26766 14612 ft 357 kts 53°
2026-05-04 16:04 59.65122 17.30785 14304 ft 354 kts 53°
2026-05-04 16:04 59.67834 17.38840 13622 ft 349 kts 53°
2026-05-04 16:04 59.69170 17.42820 13360 ft 341 kts 53°
2026-05-04 16:05 59.70449 17.46650 13195 ft 327 kts 53°
2026-05-04 16:05 59.71705 17.50367 12885 ft 321 kts 53°
2026-05-04 16:05 59.74147 17.57606 12128 ft 314 kts 53°
2026-05-04 16:06 59.75352 17.61200 11743 ft 311 kts 53°
2026-05-04 16:06 59.78423 17.70686 10790 ft 305 kts 65°
2026-05-04 16:07 59.78732 17.76165 10427 ft 294 kts 104°
2026-05-04 16:07 59.76689 17.87037 9362 ft 283 kts 84°
2026-05-04 16:08 59.77273 17.90693 8955 ft 276 kts 53°
2026-05-04 16:08 59.81797 17.96431 7782 ft 257 kts 18°
2026-05-04 16:09 59.85040 17.99376 7015 ft 254 kts 18°
2026-05-04 16:09 59.88234 18.02243 6283 ft 251 kts 18°
2026-05-04 16:10 59.91381 18.05050 5845 ft 240 kts 18°
2026-05-04 16:11 59.95176 18.03597 5166 ft 186 kts 285°
2026-05-04 16:11 59.95185 18.01101 4857 ft 183 kts 249°
2026-05-04 16:12 59.91629 17.99963 4124 ft 216 kts 165°
2026-05-04 16:12 59.87103 18.03127 3494 ft 230 kts 171°
2026-05-04 16:13 59.84027 18.02891 3099 ft 220 kts 195°
2026-05-04 16:13 59.81136 18.01825 2847 ft 203 kts 196°
2026-05-04 16:14 59.78452 18.00840 2627 ft 187 kts 196°
2026-05-04 16:14 59.75975 17.99932 2389 ft 178 kts 197°
2026-05-04 16:15 59.72397 17.98626 1749 ft 165 kts 197°
2026-05-04 16:16 59.70273 17.97856 1274 ft 143 kts 197°
2026-05-04 16:16 59.67534 17.96854 701 ft 131 kts 198°
2026-05-04 16:17 59.65754 17.96211 340 ft 129 kts 198°
2026-05-04 16:18 59.63506 17.95387 122 ft 35 kts 194°
2026-05-04 16:18 59.63308 17.95148 121 ft 33 kts 218°
2026-05-04 16:19 59.63408 17.94947 121 ft 18 kts 11°
2026-05-04 16:19 59.63647 17.95034 113 ft 21 kts 11°
2026-05-04 16:20 59.64089 17.95191 108 ft 17 kts 12°
2026-05-04 16:20 59.64359 17.95290 106 ft 16 kts 11°
2026-05-04 16:21 59.64780 17.95443 106 ft 24 kts 10°
2026-05-04 16:22 59.65063 17.95503 112 ft 18 kts 349°
2026-05-04 16:22 59.65362 17.95345 125 ft 15 kts 345°
2026-05-04 16:23 59.65714 17.95156 128 ft 13 kts 335°
2026-05-04 16:24 59.65664 17.94347 126 ft 20 kts 256°
2026-05-04 16:25 59.65590 17.93773 114 ft 21 kts 255°
2026-05-04 16:26 59.65453 17.92790 111 ft 16 kts 248°
2026-05-04 16:26 59.65348 17.92735 112 ft 3 kts 116°
2026-05-04 16:27 59.65336 17.92868 112 ft 5 kts 100°
2026-05-04 16:28 59.65333 17.92905 112 ft 0 kts 100°